Location: Unspecified
(49.8670°N, 0.0000°E)
Time: 06:29:56
(UTC+00:00)

Vanguard 1 - Pass Details

Date: 27 June 2019
Orbit: 653 x 3830 km, 34.3° (Epoch: 12 October)

Event Time Altitude Azimuth Distance (km) Brightness Sun altitude
Rises 02:42:57 0° 244° (WSW) 7,811 - -8.7°
Exits shadow 02:43:14 - 244° (WSW) 7,754 14.1 -8.6°
Reaches altitude 10° 02:49:05 10° 239° (WSW) 6,523 13.7 -8.1°
Maximum altitude 03:06:19 41° 179° (S) 3,304 12.4 -6.3°
Drops below altitude 10° 03:16:46 10° 114° (ESE) 4,032 13.5 -5.1°
Sets 03:19:33 0° 106° (ESE) 4,679 14.0 -4.8°
